Time,TemperatureF,DewpointF,PressureIn,WindDirection,WindDirectionDegrees,WindSpeedMPH,WindSpeedGustMPH,Humidity,HourlyPrecipIn,Conditions,Clouds,dailyrainin,SoftwareType,DateUTC
2013-05-29 00:00:00,54.7,47.0,29.73,NNW,337,0.0,1.2,75,0.00,,,0.00,Rainwise IP-100,2013-05-29 04:00:00,
2013-05-29 00:01:00,54.7,47.0,29.72,NNW,337,0.0,1.2,75,0.00,,,0.00,Rainwise IP-100,2013-05-29 04:01:00,
2013-05-29 00:06:00,54.6,47.0,29.72,NNW,337,0.0,0.0,75,0.00,,,0.00,Rainwise IP-100,2013-05-29 04:06:00,
2013-05-29 00:11:00,54.5,47.0,29.73,NNW,337,0.0,0.0,75,0.00,,,0.00,Rainwise IP-100,2013-05-29 04:11:00,
2013-05-29 00:16:00,54.5,47.5,29.73,NNW,337,1.4,0.0,76,0.00,,,0.00,Rainwise IP-100,2013-05-29 04:16:00,
2013-05-29 00:21:00,54.4,47.5,29.73,NNW,337,0.0,1.6,77,0.00,,,0.00,Rainwise IP-100,2013-05-29 04:21:00,
2013-05-29 00:26:00,54.3,47.5,29.73,NNW,337,0.0,0.0,77,0.00,,,0.00,Rainwise IP-100,2013-05-29 04:26:00,
2013-05-29 00:31:00,54.3,48.0,29.72,NNW,337,0.0,0.0,78,0.00,,,0.00,Rainwise IP-100,2013-05-29 04:31:00,
2013-05-29 00:36:00,54.3,48.0,29.73,NNW,337,1.2,0.0,78,0.00,,,0.00,Rainwise IP-100,2013-05-29 04:36:00,
2013-05-29 00:41:00,54.2,47.5,29.72,NNW,337,2.1,3.3,78,0.00,,,0.00,Rainwise IP-100,2013-05-29 04:41:00,
2013-05-29 00:46:00,54.1,47.0,29.72,NNW,337,0.0,2.6,77,0.00,,,0.00,Rainwise IP-100,2013-05-29 04:46:00,
2013-05-29 00:51:00,54.0,47.0,29.72,NNW,337,0.0,1.6,77,0.00,,,0.00,Rainwise IP-100,2013-05-29 04:51:00,
2013-05-29 00:56:00,53.9,47.5,29.72,NNW,337,0.0,2.1,78,0.00,,,0.00,Rainwise IP-100,2013-05-29 04:56:00,
2013-05-29 01:01:00,53.8,47.5,29.72,NNW,337,1.9,1.9,78,0.00,,,0.00,Rainwise IP-100,2013-05-29 05:01:00,
2013-05-29 01:06:00,53.7,47.0,29.72,NNW,337,1.4,2.3,78,0.00,,,0.00,Rainwise IP-100,2013-05-29 05:06:00,
2013-05-29 01:11:00,53.7,47.0,29.72,NNW,337,1.2,1.9,79,0.00,,,0.00,Rainwise IP-100,2013-05-29 05:11:00,
2013-05-29 01:17:00,53.7,47.0,29.72,NNW,337,0.0,2.3,78,0.00,,,0.00,Rainwise IP-100,2013-05-29 05:17:00,
2013-05-29 01:22:00,53.8,47.5,29.72,NNW,337,1.9,1.9,78,0.00,,,0.00,Rainwise IP-100,2013-05-29 05:22:00,
2013-05-29 01:27:00,53.8,47.5,29.71,NNW,337,0.0,3.0,79,0.00,,,0.00,Rainwise IP-100,2013-05-29 05:27:00,
2013-05-29 01:32:00,53.8,47.5,29.72,NNW,337,1.2,0.0,79,0.00,,,0.00,Rainwise IP-100,2013-05-29 05:32:00,
2013-05-29 01:37:00,53.9,47.5,29.72,NNW,337,0.0,1.2,79,0.00,,,0.00,Rainwise IP-100,2013-05-29 05:37:00,
2013-05-29 01:42:00,53.8,47.5,29.71,NNW,337,1.2,2.6,79,0.00,,,0.00,Rainwise IP-100,2013-05-29 05:42:00,
2013-05-29 01:47:00,53.7,47.0,29.71,NNW,337,0.0,2.1,79,0.00,,,0.00,Rainwise IP-100,2013-05-29 05:47:00,
2013-05-29 01:52:00,53.7,47.0,29.71,NNW,337,2.1,2.1,79,0.00,,,0.00,Rainwise IP-100,2013-05-29 05:52:00,
2013-05-29 01:57:00,53.8,47.5,29.71,NNW,337,0.0,2.1,79,0.00,,,0.00,Rainwise IP-100,2013-05-29 05:57:00,
2013-05-29 02:02:00,54.0,47.5,29.71,NNW,337,0.0,0.0,78,0.00,,,0.00,Rainwise IP-100,2013-05-29 06:02:00,
2013-05-29 02:07:00,54.1,47.5,29.71,NNW,337,0.0,0.0,78,0.00,,,0.00,Rainwise IP-100,2013-05-29 06:07:00,
2013-05-29 02:12:00,54.2,47.5,29.70,NNW,337,0.0,0.0,79,0.00,,,0.00,Rainwise IP-100,2013-05-29 06:12:00,
2013-05-29 02:17:00,54.1,47.5,29.70,NNW,337,0.0,1.2,79,0.00,,,0.00,Rainwise IP-100,2013-05-29 06:17:00,
2013-05-29 02:22:00,54.0,47.5,29.69,NNW,337,0.0,2.1,79,0.00,,,0.00,Rainwise IP-100,2013-05-29 06:22:00,
2013-05-29 02:27:00,53.9,48.0,29.70,NNW,337,0.0,0.0,80,0.00,,,0.00,Rainwise IP-100,2013-05-29 06:27:00,
2013-05-29 02:33:00,53.9,48.0,29.70,NNW,337,0.0,0.0,80,0.00,,,0.00,Rainwise IP-100,2013-05-29 06:33:00,
2013-05-29 02:38:00,53.9,48.0,29.70,NNW,337,1.9,1.9,81,0.00,,,0.00,Rainwise IP-100,2013-05-29 06:38:00,
2013-05-29 02:43:00,53.8,48.0,29.70,NNW,337,1.9,2.6,81,0.00,,,0.00,Rainwise IP-100,2013-05-29 06:43:00,
2013-05-29 02:48:00,53.7,48.0,29.69,NNW,337,1.2,2.6,82,0.00,,,0.00,Rainwise IP-100,2013-05-29 06:48:00,
2013-05-29 02:53:00,53.7,47.5,29.69,NNW,337,0.0,1.6,81,0.00,,,0.00,Rainwise IP-100,2013-05-29 06:53:00,
2013-05-29 02:58:00,53.9,48.0,29.69,NNW,337,0.0,0.0,81,0.00,,,0.00,Rainwise IP-100,2013-05-29 06:58:00,
2013-05-29 03:03:00,54.0,48.0,29.69,NNW,337,0.0,1.4,82,0.00,,,0.00,Rainwise IP-100,2013-05-29 07:03:00,
2013-05-29 03:08:00,54.1,48.0,29.69,NNW,337,0.0,0.0,82,0.00,,,0.00,Rainwise IP-100,2013-05-29 07:08:00,
2013-05-29 03:13:00,54.2,48.0,29.68,NNW,337,1.4,1.4,82,0.00,,,0.00,Rainwise IP-100,2013-05-29 07:13:00,
2013-05-29 03:18:00,54.2,48.0,29.69,NNW,337,1.4,2.8,82,0.00,,,0.00,Rainwise IP-100,2013-05-29 07:18:00,
2013-05-29 03:23:00,54.1,48.0,29.68,NNW,337,0.0,2.3,82,0.00,,,0.00,Rainwise IP-100,2013-05-29 07:23:00,
2013-05-29 03:28:00,54.0,48.0,29.68,NNW,337,0.0,2.1,82,0.00,,,0.00,Rainwise IP-100,2013-05-29 07:28:00,
2013-05-29 03:32:00,54.0,48.0,29.68,NNW,337,0.0,1.6,82,0.00,,,0.00,Rainwise IP-100,2013-05-29 07:32:00,
2013-05-29 03:37:00,54.1,49.0,29.68,NNW,337,0.0,0.0,83,0.00,,,0.00,Rainwise IP-100,2013-05-29 07:37:00,
2013-05-29 03:42:00,54.1,49.0,29.69,NNW,337,0.0,0.0,83,0.00,,,0.00,Rainwise IP-100,2013-05-29 07:42:00,
2013-05-29 03:47:00,53.9,50.0,29.69,NNW,337,0.0,0.0,85,0.00,,,0.00,Rainwise IP-100,2013-05-29 07:47:00,
2013-05-29 03:52:00,53.6,49.0,29.69,NNW,337,0.0,1.2,86,0.00,,,0.00,Rainwise IP-100,2013-05-29 07:52:00,
2013-05-29 03:57:00,53.3,50.0,29.69,NNW,337,0.0,1.9,87,0.00,,,0.00,Rainwise IP-100,2013-05-29 07:57:00,
2013-05-29 04:02:00,53.2,49.0,29.69,NNW,337,0.0,0.0,88,0.00,,,0.00,Rainwise IP-100,2013-05-29 08:02:00,
2013-05-29 04:07:00,53.0,50.0,29.69,NNW,337,0.0,0.0,89,0.00,,,0.00,Rainwise IP-100,2013-05-29 08:07:00,
2013-05-29 04:12:00,52.8,50.0,29.68,NNW,337,0.0,0.0,90,0.00,,,0.00,Rainwise IP-100,2013-05-29 08:12:00,
2013-05-29 04:17:00,52.8,50.0,29.69,NNW,337,0.0,0.0,90,0.00,,,0.00,Rainwise IP-100,2013-05-29 08:17:00,
2013-05-29 04:23:00,52.8,50.0,29.68,NNW,337,0.0,0.0,91,0.00,,,0.00,Rainwise IP-100,2013-05-29 08:23:00,
2013-05-29 04:28:00,52.8,50.0,29.68,NNW,337,0.0,1.9,91,0.00,,,0.00,Rainwise IP-100,2013-05-29 08:28:00,
2013-05-29 04:33:00,52.7,50.5,29.68,NNW,337,1.6,1.6,92,0.00,,,0.00,Rainwise IP-100,2013-05-29 08:33:00,
2013-05-29 04:35:00,52.7,50.5,29.68,NNW,337,0.0,1.6,92,0.00,,,0.00,Rainwise IP-100,2013-05-29 08:35:00,
2013-05-29 04:40:00,52.6,50.5,29.68,NNW,337,1.2,1.4,93,0.00,,,0.00,Rainwise IP-100,2013-05-29 08:40:00,
2013-05-29 04:45:00,52.6,50.5,29.68,NNW,337,2.1,2.1,93,0.00,,,0.00,Rainwise IP-100,2013-05-29 08:45:00,
2013-05-29 04:50:00,52.6,50.5,29.69,NNW,337,1.6,3.3,93,0.00,,,0.00,Rainwise IP-100,2013-05-29 08:50:00,
2013-05-29 04:55:00,52.6,50.5,29.68,NNW,337,0.0,2.1,93,0.00,,,0.00,Rainwise IP-100,2013-05-29 08:55:00,
2013-05-29 05:00:00,52.7,51.0,29.69,NNW,337,0.0,0.0,94,0.00,,,0.00,Rainwise IP-100,2013-05-29 09:00:00,
2013-05-29 05:05:00,52.7,50.5,29.68,NNW,337,0.0,1.9,93,0.00,,,0.00,Rainwise IP-100,2013-05-29 09:05:00,
2013-05-29 05:10:00,52.7,50.5,29.69,NNW,337,1.4,2.6,93,0.00,,,0.00,Rainwise IP-100,2013-05-29 09:10:00,
2013-05-29 05:15:00,52.7,50.5,29.69,NNW,337,0.0,1.4,93,0.00,,,0.00,Rainwise IP-100,2013-05-29 09:15:00,
2013-05-29 05:20:00,52.8,51.0,29.69,NNW,337,0.0,0.0,94,0.00,,,0.00,Rainwise IP-100,2013-05-29 09:20:00,
2013-05-29 05:25:00,52.7,51.0,29.69,NNW,337,0.0,0.0,94,0.00,,,0.00,Rainwise IP-100,2013-05-29 09:25:00,
2013-05-29 05:31:00,52.7,51.0,29.69,NNW,337,1.2,2.3,94,0.00,,,0.00,Rainwise IP-100,2013-05-29 09:31:00,
2013-05-29 05:36:00,52.7,50.5,29.69,NNW,337,4.0,5.1,93,0.00,,,0.00,Rainwise IP-100,2013-05-29 09:36:00,
2013-05-29 05:41:00,52.8,50.5,29.69,NNW,337,2.6,5.1,93,0.00,,,0.00,Rainwise IP-100,2013-05-29 09:41:00,
2013-05-29 05:46:00,53.0,50.5,29.69,NNW,337,2.3,4.0,92,0.00,,,0.00,Rainwise IP-100,2013-05-29 09:46:00,
2013-05-29 05:51:00,53.0,50.5,29.69,NNW,337,0.0,3.3,92,0.00,,,0.00,Rainwise IP-100,2013-05-29 09:51:00,
2013-05-29 05:56:00,53.0,50.5,29.69,NNW,337,0.0,0.0,92,0.00,,,0.00,Rainwise IP-100,2013-05-29 09:56:00,
2013-05-29 06:01:00,53.1,50.5,29.69,NNW,337,0.0,1.2,92,0.00,,,0.00,Rainwise IP-100,2013-05-29 10:01:00,
2013-05-29 06:06:00,53.0,50.5,29.69,NNW,337,1.4,1.6,92,0.00,,,0.00,Rainwise IP-100,2013-05-29 10:06:00,
2013-05-29 06:11:00,52.9,50.5,29.69,NNW,337,0.0,1.4,93,0.00,,,0.00,Rainwise IP-100,2013-05-29 10:11:00,
2013-05-29 06:16:00,52.9,50.5,29.69,NNW,337,0.0,0.0,93,0.06,,,0.01,Rainwise IP-100,2013-05-29 10:16:00,
2013-05-29 06:21:00,52.9,50.5,29.69,NNW,337,1.9,2.6,93,0.06,,,0.01,Rainwise IP-100,2013-05-29 10:21:00,
2013-05-29 06:26:00,52.9,50.5,29.69,NW,315,4.0,4.2,93,0.00,,,0.01,Rainwise IP-100,2013-05-29 10:26:00,
2013-05-29 06:31:00,52.8,51.0,29.70,NW,315,2.6,4.2,94,0.00,,,0.01,Rainwise IP-100,2013-05-29 10:31:00,
2013-05-29 06:36:00,52.7,51.0,29.69,NW,315,0.0,3.7,94,0.00,,,0.01,Rainwise IP-100,2013-05-29 10:36:00,
2013-05-29 06:41:00,52.7,51.0,29.69,NW,315,0.0,0.0,95,0.00,,,0.01,Rainwise IP-100,2013-05-29 10:41:00,
2013-05-29 06:47:00,52.7,51.0,29.69,NNW,337,2.8,4.2,95,0.00,,,0.01,Rainwise IP-100,2013-05-29 10:47:00,
2013-05-29 06:52:00,52.7,51.0,29.69,NNW,337,0.0,4.2,95,0.00,,,0.01,Rainwise IP-100,2013-05-29 10:52:00,
2013-05-29 06:57:00,52.7,51.0,29.69,NNW,337,1.2,1.6,95,0.06,,,0.02,Rainwise IP-100,2013-05-29 10:57:00,
2013-05-29 07:02:00,52.6,51.0,29.69,NNW,337,1.2,3.7,96,0.06,,,0.02,Rainwise IP-100,2013-05-29 11:02:00,
2013-05-29 07:07:00,52.6,51.0,29.69,NNW,337,0.0,1.9,96,0.00,,,0.02,Rainwise IP-100,2013-05-29 11:07:00,
2013-05-29 07:12:00,52.6,51.0,29.69,NNW,337,1.2,2.3,96,0.00,,,0.02,Rainwise IP-100,2013-05-29 11:12:00,
2013-05-29 07:17:00,52.6,52.0,29.69,NNW,337,0.0,1.4,97,0.00,,,0.02,Rainwise IP-100,2013-05-29 11:17:00,
2013-05-29 07:22:00,52.5,52.0,29.69,NE,45,0.0,2.3,97,0.00,,,0.02,Rainwise IP-100,2013-05-29 11:22:00,
2013-05-29 07:27:00,52.4,51.0,29.68,NE,45,0.0,0.0,97,0.00,,,0.02,Rainwise IP-100,2013-05-29 11:27:00,
2013-05-29 07:32:00,52.4,51.0,29.69,WNW,292,1.2,1.9,97,0.00,,,0.02,Rainwise IP-100,2013-05-29 11:32:00,
2013-05-29 07:37:00,52.5,52.0,29.69,WNW,292,2.6,2.6,97,0.00,,,0.02,Rainwise IP-100,2013-05-29 11:37:00,
2013-05-29 07:42:00,52.6,52.0,29.70,NW,315,3.5,4.7,97,0.00,,,0.02,Rainwise IP-100,2013-05-29 11:42:00,
2013-05-29 07:47:00,52.6,52.0,29.69,WSW,247,1.6,4.7,97,0.00,,,0.02,Rainwise IP-100,2013-05-29 11:47:00,
2013-05-29 07:52:00,52.6,52.0,29.69,WSW,247,0.0,2.1,97,0.00,,,0.02,Rainwise IP-100,2013-05-29 11:52:00,
2013-05-29 07:58:00,52.7,52.0,29.69,WNW,292,0.0,0.0,97,0.00,,,0.02,Rainwise IP-100,2013-05-29 11:58:00,
2013-05-29 08:03:00,52.8,52.0,29.70,North,360,2.8,3.0,98,0.00,,,0.02,Rainwise IP-100,2013-05-29 12:03:00,
2013-05-29 08:08:00,52.8,52.0,29.69,WNW,292,0.0,3.3,98,0.00,,,0.02,Rainwise IP-100,2013-05-29 12:08:00,
2013-05-29 08:13:00,52.8,52.0,29.68,SSW,202,2.1,3.7,98,0.00,,,0.02,Rainwise IP-100,2013-05-29 12:13:00,
2013-05-29 08:18:00,52.8,52.0,29.68,WSW,247,0.0,2.1,98,0.00,,,0.02,Rainwise IP-100,2013-05-29 12:18:00,
2013-05-29 08:23:00,52.8,52.0,29.68,WSW,247,0.0,1.9,98,0.06,,,0.03,Rainwise IP-100,2013-05-29 12:23:00,
2013-05-29 08:28:00,52.9,52.0,29.68,WSW,247,2.1,2.6,98,0.06,,,0.03,Rainwise IP-100,2013-05-29 12:28:00,
2013-05-29 08:33:00,53.0,52.0,29.68,NNW,337,3.3,4.4,98,0.00,,,0.03,Rainwise IP-100,2013-05-29 12:33:00,
2013-05-29 08:38:00,53.2,52.0,29.69,WNW,292,1.9,3.7,98,0.00,,,0.03,Rainwise IP-100,2013-05-29 12:38:00,
2013-05-29 08:43:00,53.4,53.0,29.69,NNW,337,1.4,4.0,98,0.00,,,0.03,Rainwise IP-100,2013-05-29 12:43:00,
2013-05-29 08:48:00,53.5,53.0,29.68,NNW,337,0.0,1.6,98,0.00,,,0.03,Rainwise IP-100,2013-05-29 12:48:00,
2013-05-29 08:53:00,53.6,53.0,29.68,NNW,337,1.6,0.0,98,0.00,,,0.03,Rainwise IP-100,2013-05-29 12:53:00,
2013-05-29 08:58:00,53.6,53.0,29.68,WNW,292,2.6,3.5,98,0.00,,,0.03,Rainwise IP-100,2013-05-29 12:58:00,
2013-05-29 09:03:00,53.6,53.0,29.68,West,270,1.2,3.5,98,0.00,,,0.03,Rainwise IP-100,2013-05-29 13:03:00,
2013-05-29 09:08:00,53.7,53.0,29.68,SW,225,0.0,1.9,98,0.06,,,0.04,Rainwise IP-100,2013-05-29 13:08:00,
2013-05-29 09:14:00,53.9,53.5,29.68,SW,225,0.0,2.1,98,0.06,,,0.04,Rainwise IP-100,2013-05-29 13:14:00,
2013-05-29 09:19:00,54.1,53.5,29.68,WSW,247,0.0,1.4,98,0.00,,,0.04,Rainwise IP-100,2013-05-29 13:19:00,
2013-05-29 09:24:00,54.1,53.5,29.68,WSW,247,2.8,2.8,98,0.00,,,0.04,Rainwise IP-100,2013-05-29 13:24:00,
2013-05-29 09:29:00,54.1,53.5,29.68,SW,225,2.1,3.3,98,0.00,,,0.04,Rainwise IP-100,2013-05-29 13:29:00,
2013-05-29 09:30:00,54.1,53.5,29.67,SW,225,1.4,2.3,98,0.00,,,0.04,Rainwise IP-100,2013-05-29 13:30:00,
2013-05-29 09:35:00,54.2,53.5,29.67,SW,225,0.0,2.1,98,0.06,,,0.05,Rainwise IP-100,2013-05-29 13:35:00,
2013-05-29 09:41:00,54.3,54.0,29.67,SW,225,0.0,1.4,98,0.12,,,0.06,Rainwise IP-100,2013-05-29 13:41:00,
2013-05-29 09:46:00,54.4,54.0,29.67,West,270,0.0,1.6,98,0.12,,,0.07,Rainwise IP-100,2013-05-29 13:46:00,
2013-05-29 09:51:00,54.4,54.0,29.67,SW,225,3.3,3.3,98,0.06,,,0.07,Rainwise IP-100,2013-05-29 13:51:00,
2013-05-29 09:56:00,54.4,54.0,29.67,SSE,157,0.0,4.7,98,0.00,,,0.07,Rainwise IP-100,2013-05-29 13:56:00,
2013-05-29 10:01:00,54.6,54.0,29.67,SSE,157,0.0,1.4,98,0.06,,,0.08,Rainwise IP-100,2013-05-29 14:01:00,
2013-05-29 10:06:00,54.7,54.0,29.67,WSW,247,1.6,2.6,98,0.06,,,0.08,Rainwise IP-100,2013-05-29 14:06:00,
2013-05-29 10:11:00,54.8,54.5,29.67,SW,225,0.0,3.3,98,0.00,,,0.08,Rainwise IP-100,2013-05-29 14:11:00,
2013-05-29 10:16:00,54.9,54.5,29.66,WSW,247,0.0,2.8,98,0.00,,,0.08,Rainwise IP-100,2013-05-29 14:16:00,
2013-05-29 10:21:00,55.0,54.5,29.66,SW,225,0.0,4.7,98,0.00,,,0.09,Rainwise IP-100,2013-05-29 14:21:00,
2013-05-29 10:26:00,55.2,54.5,29.66,South,180,1.4,2.8,98,0.06,,,0.09,Rainwise IP-100,2013-05-29 14:26:00,
2013-05-29 10:31:00,55.3,54.5,29.66,West,270,0.0,1.6,97,0.06,,,0.09,Rainwise IP-100,2013-05-29 14:31:00,
2013-05-29 10:36:00,55.4,54.5,29.65,WNW,292,1.2,1.6,97,0.00,,,0.10,Rainwise IP-100,2013-05-29 14:36:00,
2013-05-29 10:41:00,55.6,55.0,29.65,NNW,337,1.2,2.6,98,0.06,,,0.10,Rainwise IP-100,2013-05-29 14:41:00,
2013-05-29 10:46:00,55.9,55.0,29.65,NNW,337,0.0,2.6,98,0.06,,,0.10,Rainwise IP-100,2013-05-29 14:46:00,
2013-05-29 10:51:00,56.1,55.0,29.64,NNW,337,0.0,2.6,98,0.00,,,0.10,Rainwise IP-100,2013-05-29 14:51:00,
2013-05-29 10:57:00,56.2,55.0,29.63,NNW,337,0.0,1.6,98,0.00,,,0.10,Rainwise IP-100,2013-05-29 14:57:00,
2013-05-29 11:02:00,56.2,55.0,29.61,East,90,2.6,2.6,97,0.06,,,0.11,Rainwise IP-100,2013-05-29 15:02:00,
2013-05-29 11:07:00,56.1,55.0,29.61,WSW,247,1.9,5.6,97,0.06,,,0.11,Rainwise IP-100,2013-05-29 15:07:00,
2013-05-29 11:12:00,56.2,55.0,29.63,WSW,247,3.5,6.8,97,0.00,,,0.11,Rainwise IP-100,2013-05-29 15:12:00,
2013-05-29 11:17:00,56.3,56.0,29.63,West,270,1.6,5.1,97,0.00,,,0.11,Rainwise IP-100,2013-05-29 15:17:00,
2013-05-29 11:22:00,56.4,56.0,29.64,SSW,202,1.2,2.3,97,0.00,,,0.11,Rainwise IP-100,2013-05-29 15:22:00,
2013-05-29 11:27:00,56.7,56.0,29.64,WSW,247,1.4,1.6,97,0.00,,,0.11,Rainwise IP-100,2013-05-29 15:27:00,
2013-05-29 11:32:00,56.9,56.5,29.65,WSW,247,1.2,2.3,97,0.00,,,0.11,Rainwise IP-100,2013-05-29 15:32:00,
2013-05-29 11:37:00,56.9,56.0,29.65,WSW,247,0.0,1.6,96,0.00,,,0.11,Rainwise IP-100,2013-05-29 15:37:00,
2013-05-29 11:42:00,57.1,56.0,29.65,SSE,157,0.0,0.0,96,0.00,,,0.11,Rainwise IP-100,2013-05-29 15:42:00,
2013-05-29 11:47:00,57.4,57.0,29.65,SSE,157,0.0,0.0,97,0.00,,,0.11,Rainwise IP-100,2013-05-29 15:47:00,
2013-05-29 11:52:00,57.3,57.0,29.65,ENE,67,2.3,3.3,97,0.00,,,0.11,Rainwise IP-100,2013-05-29 15:52:00,
2013-05-29 11:57:00,57.2,56.5,29.65,NNW,337,2.6,2.6,97,0.00,,,0.11,Rainwise IP-100,2013-05-29 15:57:00,
2013-05-29 12:02:00,57.4,57.0,29.66,ENE,67,1.6,2.8,97,0.00,,,0.11,Rainwise IP-100,2013-05-29 16:02:00,
2013-05-29 12:07:00,57.4,57.0,29.65,NNE,22,0.0,3.0,97,0.00,,,0.11,Rainwise IP-100,2013-05-29 16:07:00,
2013-05-29 12:13:00,57.5,57.0,29.65,ENE,67,0.0,1.9,97,0.00,,,0.11,Rainwise IP-100,2013-05-29 16:13:00,
2013-05-29 12:18:00,57.7,57.0,29.65,SSW,202,2.1,2.6,97,0.00,,,0.11,Rainwise IP-100,2013-05-29 16:18:00,
2013-05-29 12:23:00,57.7,57.0,29.65,SSW,202,0.0,2.8,97,0.00,,,0.11,Rainwise IP-100,2013-05-29 16:23:00,
2013-05-29 12:28:00,57.8,57.5,29.65,SSW,202,0.0,0.0,97,0.00,,,0.11,Rainwise IP-100,2013-05-29 16:28:00,
2013-05-29 12:33:00,57.9,57.5,29.65,SSE,157,1.2,1.4,98,0.00,,,0.11,Rainwise IP-100,2013-05-29 16:33:00,
2013-05-29 12:38:00,57.8,57.5,29.64,SSE,157,1.4,1.4,97,0.00,,,0.11,Rainwise IP-100,2013-05-29 16:38:00,
2013-05-29 12:43:00,57.7,57.0,29.65,SW,225,0.0,1.9,97,0.00,,,0.11,Rainwise IP-100,2013-05-29 16:43:00,
2013-05-29 12:48:00,57.7,57.0,29.65,NNE,22,3.0,3.0,97,0.00,,,0.11,Rainwise IP-100,2013-05-29 16:48:00,
2013-05-29 12:53:00,57.7,57.0,29.64,ENE,67,2.3,3.3,97,0.00,,,0.11,Rainwise IP-100,2013-05-29 16:53:00,
2013-05-29 12:58:00,57.7,56.5,29.64,ENE,67,0.0,2.6,96,0.00,,,0.11,Rainwise IP-100,2013-05-29 16:58:00,
2013-05-29 13:03:00,58.0,57.0,29.65,NNE,22,0.0,1.2,96,0.00,,,0.11,Rainwise IP-100,2013-05-29 17:03:00,
2013-05-29 13:08:00,58.2,57.5,29.64,NNW,337,0.0,1.6,97,0.00,,,0.11,Rainwise IP-100,2013-05-29 17:08:00,
2013-05-29 13:13:00,58.3,57.5,29.64,NNW,337,0.0,1.4,97,0.00,,,0.11,Rainwise IP-100,2013-05-29 17:13:00,
2013-05-29 13:18:00,58.4,57.5,29.64,NNW,337,0.0,1.6,98,0.00,,,0.11,Rainwise IP-100,2013-05-29 17:18:00,
2013-05-29 13:24:00,58.4,57.5,29.64,NNW,337,0.0,0.0,98,0.00,,,0.11,Rainwise IP-100,2013-05-29 17:24:00,
2013-05-29 13:29:00,58.3,57.5,29.64,WNW,292,0.0,1.9,98,0.06,,,0.12,Rainwise IP-100,2013-05-29 17:29:00,
2013-05-29 13:34:00,58.4,57.5,29.64,WNW,292,0.0,1.2,98,0.06,,,0.12,Rainwise IP-100,2013-05-29 17:34:00,
2013-05-29 13:39:00,58.5,58.0,29.63,WNW,292,0.0,0.0,98,0.00,,,0.12,Rainwise IP-100,2013-05-29 17:39:00,
2013-05-29 13:44:00,58.6,58.0,29.64,WNW,292,0.0,0.0,98,0.00,,,0.12,Rainwise IP-100,2013-05-29 17:44:00,
2013-05-29 13:49:00,58.6,58.0,29.64,WNW,292,0.0,0.0,98,0.00,,,0.12,Rainwise IP-100,2013-05-29 17:49:00,
2013-05-29 13:54:00,58.7,58.0,29.63,WNW,292,0.0,0.0,98,0.00,,,0.12,Rainwise IP-100,2013-05-29 17:54:00,
2013-05-29 13:59:00,59.0,58.0,29.63,WSW,247,1.4,2.8,98,0.00,,,0.12,Rainwise IP-100,2013-05-29 17:59:00,
2013-05-29 14:04:00,58.8,59.0,29.63,NNE,22,0.0,1.9,99,0.00,,,0.12,Rainwise IP-100,2013-05-29 18:04:00,
2013-05-29 14:09:00,58.9,59.0,29.63,NNE,22,0.0,0.0,99,0.00,,,0.12,Rainwise IP-100,2013-05-29 18:09:00,
2013-05-29 14:14:00,59.1,59.0,29.63,NNW,337,1.9,2.8,99,0.00,,,0.12,Rainwise IP-100,2013-05-29 18:14:00,
2013-05-29 14:19:00,59.0,59.0,29.63,NNW,337,0.0,2.8,99,0.00,,,0.12,Rainwise IP-100,2013-05-29 18:19:00,
2013-05-29 14:24:00,58.8,59.0,29.63,NNW,337,0.0,0.0,99,0.00,,,0.12,Rainwise IP-100,2013-05-29 18:24:00,
2013-05-29 14:29:00,59.2,59.0,29.62,NNW,337,0.0,0.0,99,0.00,,,0.12,Rainwise IP-100,2013-05-29 18:29:00,
2013-05-29 14:34:00,59.6,59.0,29.63,SSW,202,0.0,2.1,99,0.00,,,0.12,Rainwise IP-100,2013-05-29 18:34:00,
2013-05-29 14:40:00,59.6,59.0,29.62,SSE,157,0.0,1.6,99,0.00,,,0.12,Rainwise IP-100,2013-05-29 18:40:00,
2013-05-29 14:45:00,59.5,59.5,29.63,WSW,247,1.4,2.3,100,0.00,,,0.12,Rainwise IP-100,2013-05-29 18:45:00,
2013-05-29 14:50:00,59.5,59.5,29.63,SSW,202,2.1,4.0,100,0.00,,,0.12,Rainwise IP-100,2013-05-29 18:50:00,
2013-05-29 14:55:00,59.6,59.5,29.63,SSE,157,0.0,2.6,100,0.00,,,0.12,Rainwise IP-100,2013-05-29 18:55:00,
2013-05-29 15:00:00,59.5,59.0,29.63,SW,225,1.4,1.9,99,0.00,,,0.12,Rainwise IP-100,2013-05-29 19:00:00,
2013-05-29 15:05:00,59.5,59.0,29.63,SW,225,0.0,1.4,99,0.00,,,0.12,Rainwise IP-100,2013-05-29 19:05:00,
2013-05-29 15:10:00,59.6,59.0,29.63,SW,225,0.0,1.2,99,0.00,,,0.12,Rainwise IP-100,2013-05-29 19:10:00,
2013-05-29 15:15:00,59.8,60.0,29.63,SW,225,0.0,1.2,100,0.00,,,0.12,Rainwise IP-100,2013-05-29 19:15:00,
2013-05-29 15:20:00,59.9,60.0,29.63,SW,225,1.2,1.9,100,0.00,,,0.12,Rainwise IP-100,2013-05-29 19:20:00,
2013-05-29 15:25:00,59.9,60.0,29.63,SW,225,1.6,2.3,100,0.00,,,0.12,Rainwise IP-100,2013-05-29 19:25:00,
2013-05-29 15:30:00,59.8,60.0,29.62,SW,225,0.0,1.9,100,0.00,,,0.12,Rainwise IP-100,2013-05-29 19:30:00,
2013-05-29 15:35:00,59.8,60.0,29.62,SW,225,0.0,0.0,100,0.00,,,0.12,Rainwise IP-100,2013-05-29 19:35:00,
2013-05-29 15:40:00,59.9,59.5,29.62,SSE,157,1.2,3.0,99,0.00,,,0.12,Rainwise IP-100,2013-05-29 19:40:00,
2013-05-29 15:45:00,60.0,59.5,29.63,SSE,157,0.0,2.1,99,0.00,,,0.12,Rainwise IP-100,2013-05-29 19:45:00,
2013-05-29 15:50:00,60.1,59.5,29.63,SW,225,2.3,0.0,99,0.00,,,0.12,Rainwise IP-100,2013-05-29 19:50:00,
2013-05-29 15:56:00,59.9,59.5,29.62,SW,225,0.0,2.3,99,0.00,,,0.12,Rainwise IP-100,2013-05-29 19:56:00,
2013-05-29 16:01:00,59.7,59.0,29.62,SSW,202,1.6,3.0,99,0.00,,,0.12,Rainwise IP-100,2013-05-29 20:01:00,
2013-05-29 16:06:00,59.6,59.0,29.61,SW,225,2.3,2.8,99,0.00,,,0.12,Rainwise IP-100,2013-05-29 20:06:00,
2013-05-29 16:11:00,59.3,59.0,29.62,SSW,202,2.6,4.0,99,0.00,,,0.12,Rainwise IP-100,2013-05-29 20:11:00,
2013-05-29 16:16:00,59.1,59.0,29.62,SSW,202,1.6,3.3,99,0.00,,,0.12,Rainwise IP-100,2013-05-29 20:16:00,
2013-05-29 16:21:00,59.0,59.0,29.62,SW,225,1.6,3.0,99,0.00,,,0.12,Rainwise IP-100,2013-05-29 20:21:00,
2013-05-29 16:26:00,58.9,59.0,29.62,West,270,0.0,2.6,99,0.00,,,0.12,Rainwise IP-100,2013-05-29 20:26:00,
2013-05-29 16:31:00,59.0,59.0,29.61,West,270,0.0,0.0,99,0.00,,,0.12,Rainwise IP-100,2013-05-29 20:31:00,
2013-05-29 16:36:00,59.0,59.0,29.61,West,270,0.0,1.2,99,0.00,,,0.12,Rainwise IP-100,2013-05-29 20:36:00,
2013-05-29 16:41:00,59.0,59.0,29.61,West,270,0.0,0.0,99,0.00,,,0.12,Rainwise IP-100,2013-05-29 20:41:00,
2013-05-29 16:46:00,59.0,59.0,29.61,West,270,0.0,1.2,99,0.00,,,0.12,Rainwise IP-100,2013-05-29 20:46:00,
2013-05-29 16:51:00,59.0,59.0,29.61,West,270,0.0,1.2,99,0.00,,,0.12,Rainwise IP-100,2013-05-29 20:51:00,
2013-05-29 16:56:00,59.1,59.0,29.61,WNW,292,0.0,0.0,99,0.00,,,0.12,Rainwise IP-100,2013-05-29 20:56:00,
2013-05-29 17:01:00,59.3,59.0,29.61,WNW,292,0.0,0.0,99,0.00,,,0.12,Rainwise IP-100,2013-05-29 21:01:00,
2013-05-29 17:06:00,59.5,59.0,29.61,WNW,292,0.0,0.0,99,0.00,,,0.12,Rainwise IP-100,2013-05-29 21:06:00,
2013-05-29 17:12:00,59.6,59.0,29.61,WNW,292,0.0,0.0,99,0.00,,,0.12,Rainwise IP-100,2013-05-29 21:12:00,
2013-05-29 17:17:00,59.6,59.5,29.60,WNW,292,0.0,0.0,100,0.00,,,0.12,Rainwise IP-100,2013-05-29 21:17:00,
2013-05-29 17:22:00,59.7,59.5,29.60,WNW,292,0.0,0.0,100,0.00,,,0.12,Rainwise IP-100,2013-05-29 21:22:00,
2013-05-29 17:27:00,59.9,60.0,29.60,WNW,292,0.0,0.0,100,0.00,,,0.12,Rainwise IP-100,2013-05-29 21:27:00,
2013-05-29 17:32:00,59.9,60.0,29.60,WNW,292,0.0,0.0,100,0.00,,,0.12,Rainwise IP-100,2013-05-29 21:32:00,
2013-05-29 17:37:00,59.9,60.0,29.59,WNW,292,0.0,0.0,100,0.00,,,0.12,Rainwise IP-100,2013-05-29 21:37:00,
2013-05-29 17:42:00,59.9,60.0,29.60,WNW,292,0.0,1.2,100,0.00,,,0.12,Rainwise IP-100,2013-05-29 21:42:00,
2013-05-29 17:47:00,59.8,60.0,29.60,WNW,292,0.0,1.2,100,0.00,,,0.12,Rainwise IP-100,2013-05-29 21:47:00,
2013-05-29 17:52:00,59.8,60.0,29.60,WNW,292,0.0,0.0,100,0.00,,,0.12,Rainwise IP-100,2013-05-29 21:52:00,
2013-05-29 17:57:00,59.8,60.0,29.59,WSW,247,0.0,1.9,100,0.00,,,0.12,Rainwise IP-100,2013-05-29 21:57:00,
2013-05-29 18:02:00,59.9,60.0,29.59,SSW,202,0.0,1.2,100,0.00,,,0.12,Rainwise IP-100,2013-05-29 22:02:00,
2013-05-29 18:07:00,60.0,60.0,29.59,SSW,202,1.6,1.9,100,0.00,,,0.12,Rainwise IP-100,2013-05-29 22:07:00,
2013-05-29 18:12:00,59.9,60.0,29.59,SSW,202,1.2,1.9,100,0.00,,,0.12,Rainwise IP-100,2013-05-29 22:12:00,
2013-05-29 18:17:00,59.9,60.0,29.58,SSW,202,0.0,1.4,100,0.00,,,0.12,Rainwise IP-100,2013-05-29 22:17:00,
2013-05-29 18:22:00,59.9,60.0,29.58,SSW,202,0.0,0.0,100,0.00,,,0.12,Rainwise IP-100,2013-05-29 22:22:00,
2013-05-29 18:28:00,59.9,60.0,29.58,SSW,202,0.0,0.0,100,0.00,,,0.12,Rainwise IP-100,2013-05-29 22:28:00,
2013-05-29 18:33:00,59.9,60.0,29.57,SSW,202,0.0,1.2,100,0.00,,,0.12,Rainwise IP-100,2013-05-29 22:33:00,
2013-05-29 18:38:00,59.9,60.0,29.58,SSW,202,0.0,0.0,100,0.00,,,0.12,Rainwise IP-100,2013-05-29 22:38:00,
2013-05-29 18:43:00,59.9,60.0,29.58,SW,225,1.4,2.3,100,0.00,,,0.12,Rainwise IP-100,2013-05-29 22:43:00,
2013-05-29 18:48:00,59.9,60.0,29.58,SW,225,0.0,2.3,100,0.00,,,0.12,Rainwise IP-100,2013-05-29 22:48:00,
2013-05-29 18:53:00,60.0,60.0,29.58,SW,225,0.0,0.0,100,0.00,,,0.12,Rainwise IP-100,2013-05-29 22:53:00,
2013-05-29 18:58:00,60.0,60.0,29.59,SW,225,1.4,1.9,100,0.00,,,0.12,Rainwise IP-100,2013-05-29 22:58:00,
2013-05-29 19:03:00,59.9,60.0,29.58,SW,225,0.0,2.1,100,0.00,,,0.12,Rainwise IP-100,2013-05-29 23:03:00,
2013-05-29 19:08:00,59.8,60.0,29.59,WNW,292,0.0,1.6,100,0.00,,,0.12,Rainwise IP-100,2013-05-29 23:08:00,
2013-05-29 19:13:00,59.8,60.0,29.59,WNW,292,0.0,0.0,100,0.00,,,0.12,Rainwise IP-100,2013-05-29 23:13:00,
2013-05-29 19:18:00,59.9,60.0,29.58,WNW,292,0.0,0.0,100,0.00,,,0.12,Rainwise IP-100,2013-05-29 23:18:00,
2013-05-29 19:23:00,59.8,60.0,29.59,WNW,292,0.0,0.0,100,0.00,,,0.12,Rainwise IP-100,2013-05-29 23:23:00,
2013-05-29 19:28:00,59.7,59.5,29.59,WNW,292,0.0,0.0,100,0.00,,,0.12,Rainwise IP-100,2013-05-29 23:28:00,
2013-05-29 19:33:00,59.7,59.5,29.59,WSW,247,0.0,2.6,100,0.00,,,0.12,Rainwise IP-100,2013-05-29 23:33:00,
2013-05-29 19:38:00,59.7,59.5,29.59,WSW,247,0.0,0.0,100,0.00,,,0.12,Rainwise IP-100,2013-05-29 23:38:00,
2013-05-29 19:44:00,59.6,59.5,29.58,SSE,157,0.0,1.2,100,0.00,,,0.12,Rainwise IP-100,2013-05-29 23:44:00,
2013-05-29 19:49:00,59.5,59.5,29.58,SSE,157,0.0,0.0,100,0.00,,,0.12,Rainwise IP-100,2013-05-29 23:49:00,
2013-05-29 19:54:00,59.5,59.5,29.58,SSE,157,0.0,0.0,100,0.00,,,0.12,Rainwise IP-100,2013-05-29 23:54:00,
2013-05-29 19:59:00,59.5,59.5,29.58,SSE,157,0.0,0.0,100,0.00,,,0.12,Rainwise IP-100,2013-05-29 23:59:00,
2013-05-29 20:04:00,59.5,59.5,29.57,SSE,157,0.0,0.0,100,0.00,,,0.12,Rainwise IP-100,2013-05-30 00:04:00,
2013-05-29 20:09:00,59.5,59.5,29.58,SSE,157,0.0,0.0,100,0.00,,,0.12,Rainwise IP-100,2013-05-30 00:09:00,
2013-05-29 20:14:00,59.5,59.5,29.58,SSE,157,0.0,1.4,100,0.00,,,0.12,Rainwise IP-100,2013-05-30 00:14:00,
2013-05-29 20:19:00,59.4,59.5,29.57,SSE,157,0.0,0.0,100,0.00,,,0.12,Rainwise IP-100,2013-05-30 00:19:00,
2013-05-29 20:24:00,59.3,59.5,29.57,SSE,157,0.0,0.0,100,0.00,,,0.12,Rainwise IP-100,2013-05-30 00:24:00,
2013-05-29 20:29:00,59.3,59.5,29.56,SSE,157,0.0,0.0,100,0.00,,,0.12,Rainwise IP-100,2013-05-30 00:29:00,
2013-05-29 20:34:00,59.3,59.5,29.57,NNW,337,3.0,3.0,100,0.06,,,0.13,Rainwise IP-100,2013-05-30 00:34:00,
2013-05-29 20:39:00,59.2,59.0,29.57,NNE,22,0.0,3.7,100,0.06,,,0.13,Rainwise IP-100,2013-05-30 00:39:00,
2013-05-29 20:44:00,59.2,59.0,29.57,NNE,22,0.0,0.0,100,0.00,,,0.13,Rainwise IP-100,2013-05-30 00:44:00,
2013-05-29 20:49:00,59.1,59.0,29.58,NNE,22,0.0,1.2,100,0.00,,,0.13,Rainwise IP-100,2013-05-30 00:49:00,
2013-05-29 20:54:00,59.1,59.0,29.58,NNE,22,0.0,1.4,100,0.06,,,0.14,Rainwise IP-100,2013-05-30 00:54:00,
2013-05-29 21:00:00,59.1,59.0,29.57,NE,45,1.9,3.3,100,0.06,,,0.14,Rainwise IP-100,2013-05-30 01:00:00,
2013-05-29 21:05:00,59.0,59.0,29.57,WSW,247,1.2,2.6,100,0.00,,,0.14,Rainwise IP-100,2013-05-30 01:05:00,
2013-05-29 21:10:00,59.0,59.0,29.57,WSW,247,0.0,2.3,100,0.00,,,0.14,Rainwise IP-100,2013-05-30 01:10:00,
2013-05-29 21:15:00,59.0,59.0,29.57,WSW,247,0.0,0.0,100,0.00,,,0.14,Rainwise IP-100,2013-05-30 01:15:00,
2013-05-29 21:20:00,59.0,59.0,29.57,WSW,247,0.0,1.6,100,0.00,,,0.14,Rainwise IP-100,2013-05-30 01:20:00,
2013-05-29 21:25:00,59.0,59.0,29.56,WSW,247,0.0,1.9,100,0.00,,,0.14,Rainwise IP-100,2013-05-30 01:25:00,
2013-05-29 21:30:00,59.0,59.0,29.57,WSW,247,0.0,0.0,100,0.00,,,0.14,Rainwise IP-100,2013-05-30 01:30:00,
2013-05-29 21:35:00,59.0,59.0,29.57,WSW,247,0.0,0.0,100,0.00,,,0.14,Rainwise IP-100,2013-05-30 01:35:00,
2013-05-29 21:40:00,58.9,59.0,29.57,WSW,247,0.0,0.0,100,0.00,,,0.14,Rainwise IP-100,2013-05-30 01:40:00,
2013-05-29 21:45:00,58.9,59.0,29.57,WSW,247,0.0,0.0,100,0.00,,,0.14,Rainwise IP-100,2013-05-30 01:45:00,
2013-05-29 21:50:00,58.9,59.0,29.57,WSW,247,0.0,0.0,100,0.00,,,0.14,Rainwise IP-100,2013-05-30 01:50:00,
2013-05-29 21:55:00,58.9,59.0,29.57,WSW,247,0.0,0.0,100,0.00,,,0.14,Rainwise IP-100,2013-05-30 01:55:00,
2013-05-29 22:00:00,58.8,59.0,29.57,WSW,247,0.0,0.0,100,0.00,,,0.14,Rainwise IP-100,2013-05-30 02:00:00,
2013-05-29 22:05:00,58.8,59.0,29.57,WSW,247,1.2,1.2,100,0.00,,,0.14,Rainwise IP-100,2013-05-30 02:05:00,
2013-05-29 22:10:00,58.8,59.0,29.57,WSW,247,0.0,1.4,100,0.00,,,0.14,Rainwise IP-100,2013-05-30 02:10:00,
2013-05-29 22:16:00,58.8,59.0,29.57,WSW,247,0.0,0.0,100,0.00,,,0.14,Rainwise IP-100,2013-05-30 02:16:00,
2013-05-29 22:21:00,58.8,59.0,29.57,WSW,247,0.0,0.0,100,0.00,,,0.14,Rainwise IP-100,2013-05-30 02:21:00,
2013-05-29 22:26:00,58.8,59.0,29.57,WSW,247,0.0,0.0,100,0.00,,,0.14,Rainwise IP-100,2013-05-30 02:26:00,
2013-05-29 22:31:00,58.8,59.0,29.57,WSW,247,0.0,0.0,100,0.00,,,0.14,Rainwise IP-100,2013-05-30 02:31:00,
2013-05-29 22:36:00,58.8,59.0,29.57,WSW,247,0.0,0.0,100,0.00,,,0.14,Rainwise IP-100,2013-05-30 02:36:00,
2013-05-29 22:41:00,58.8,59.0,29.57,WSW,247,0.0,0.0,100,0.00,,,0.14,Rainwise IP-100,2013-05-30 02:41:00,
2013-05-29 22:46:00,58.8,59.0,29.57,WSW,247,0.0,0.0,100,0.00,,,0.14,Rainwise IP-100,2013-05-30 02:46:00,
2013-05-29 22:51:00,58.8,59.0,29.58,WSW,247,0.0,0.0,100,0.00,,,0.14,Rainwise IP-100,2013-05-30 02:51:00,
2013-05-29 22:56:00,58.8,59.0,29.57,WSW,247,0.0,0.0,100,0.00,,,0.14,Rainwise IP-100,2013-05-30 02:56:00,
2013-05-29 23:01:00,58.8,59.0,29.58,WSW,247,0.0,0.0,100,0.00,,,0.14,Rainwise IP-100,2013-05-30 03:01:00,
2013-05-29 23:06:00,58.7,59.0,29.58,WSW,247,0.0,0.0,100,0.00,,,0.14,Rainwise IP-100,2013-05-30 03:06:00,
2013-05-29 23:11:00,58.8,59.0,29.58,WSW,247,0.0,0.0,100,0.00,,,0.14,Rainwise IP-100,2013-05-30 03:11:00,
2013-05-29 23:16:00,58.9,59.0,29.58,WSW,247,0.0,1.6,100,0.00,,,0.14,Rainwise IP-100,2013-05-30 03:16:00,
2013-05-29 23:21:00,59.0,59.0,29.59,WSW,247,0.0,0.0,100,0.00,,,0.14,Rainwise IP-100,2013-05-30 03:21:00,
2013-05-29 23:26:00,59.0,59.0,29.59,WSW,247,0.0,0.0,100,0.00,,,0.14,Rainwise IP-100,2013-05-30 03:26:00,
2013-05-29 23:32:00,58.9,59.0,29.59,WSW,247,0.0,0.0,100,0.00,,,0.14,Rainwise IP-100,2013-05-30 03:32:00,
2013-05-29 23:37:00,58.8,59.0,29.59,WSW,247,0.0,0.0,100,0.00,,,0.14,Rainwise IP-100,2013-05-30 03:37:00,
2013-05-29 23:42:00,58.8,59.0,29.59,WSW,247,0.0,0.0,100,0.00,,,0.14,Rainwise IP-100,2013-05-30 03:42:00,
2013-05-29 23:47:00,58.8,59.0,29.58,WSW,247,0.0,0.0,100,0.00,,,0.14,Rainwise IP-100,2013-05-30 03:47:00,
2013-05-29 23:52:00,58.7,59.0,29.58,WSW,247,1.9,1.9,100,0.00,,,0.14,Rainwise IP-100,2013-05-30 03:52:00,
2013-05-29 23:57:00,58.7,59.0,29.58,SSW,202,2.1,2.3,100,0.00,,,0.14,Rainwise IP-100,2013-05-30 03:57:00,